www.pogodaiklimat.ru

Погода и климат >> Архив погоды >> Канада >> Rankin Inlet


ПОГОДА в Rankin Inlet

  • Прогноз погоды в Rankin Inlet
  • Монитор погоды в Rankin Inlet
  • Климат города

АРХИВ ПОГОДЫ в Rankin Inlet

Время (UTC), дата Ветер
(напр.,м/с)
 
Видим.   Явления Облачность Т
(С)
Тd
(С)
f
(%)
Тe
(С)
Тes
(С)
Комфортность P
(гПа)
Po
(гПа)
Тmin
(С)
Tmax
(С)
R
(мм)
S
(см)
18 20.03 С 19 <100 м сильная метель н/о -31.1 -34.6 71 -53 -53 опасность
обморожения
1010.9 1006.4 -32.3 -23.6
21 20.03 С 19 <100 м н/о -29.9 -33.3 72 -51 -51 опасность
обморожения
1012.3 1007.8
00 21.03 С 14 200 м сильная метель н/о -29.3 -32.6 73 -48 -48 опасность
обморожения
1015.9 1011.5 -32.3 -29.3
03 21.03 С 19 200 м н/о -30.1 -33.5 72 -51 -51 опасность
обморожения
1016.2 1011.7
06 21.03 С 16 200 м сильная метель н/о -30.6 -34.0 72 -51 -51 опасность
обморожения
1017.4 1012.9 -32.3 -23.6 23
09 21.03 С 13 200 м н/о -30.5 -33.9 72 -49 -49 опасность
обморожения
1019.5 1015.0
12 21.03 С 15 400 м сильная метель н/о -30.3 -33.7 72 -50 -50 опасность
обморожения
1021.1 1016.6 -30.7 -23.6 32
15 21.03 С 10 800 м ясно -28.0 -31.3 73 -44 -44 опасность
обморожения
1022.4 1017.9
18 21.03 СЗ 9 3200 м метель ясно -25.3 -28.8 72 -40 -40 опасность
обморожения
1023.4 1018.9 -31.1 -25.3
21 21.03 СЗ 8 24 км ясно -23.8 -27.8 69 -38 -37 опасность
обморожения
1023.6 1019.2
00 22.03 З 4 24 км 1/0
[Ci fib]
-24.7 -28.4 71 -35 -35 опасность
обморожения
1022.9 1018.5 -30.7 -23.3
03 22.03 З 3 24 км 3/0
[]
-27.9 -31.2 73 -36 -36 опасность
обморожения
1021.8 1017.4
06 22.03 СЗ 4 24 км ясно -29.1 -32.4 73 -40 -40 опасность
обморожения
1020.6 1016.1 -30.7 -23.3 83
09 22.03 СЗ 4 24 км ясно -30.9 -34.1 73 -42 -42 опасность
обморожения
1019.7 1015.2
12 22.03 С 3 24 км ледяные иглы {снег} ясно -30.6 -34.0 72 -40 -40 опасность
обморожения
1019.9 1015.4 -31.1 -23.3 0.0 32
15 22.03 СЗ 6 24 км ясно -28.5 -32.1 71 -41 -40 опасность
обморожения
1020.0 1015.6
18 22.03 СЗ 6 24 км ясно -25.1 -28.8 71 -37 -35 опасность
обморожения
1020.0 1015.5 -31.1 -25.1 32
21 22.03 СЗ 6 24 км 8/0
[]
-23.0 -27.4 67 -35 -34 опасность
обморожения
1019.9 1015.4
00 23.03 СЗ 4 24 км 9/0
[Ac As]
-23.5 -27.2 72 -33 -33 опасность
обморожения
1018.7 1014.2 -31.1 -22.6
03 23.03 З 3 24 км 9/0
[]
-23.1 -26.8 72 -31 -31 опасность
обморожения
1018.1 1013.6
06 23.03 СЗ 3 9000 м слабый снег 10/10 600 м
[Sc]
-22.4 -25.3 77 -30 -30 1016.3 1011.8 -31.1 -22.4 0.0 15
09 23.03 С 6 6000 м 10/10 600 м
[]
-22.5 -25.7 75 -34 -34 опасность
обморожения
1014.9 1010.5
12 23.03 С 6 24 км {снег} 3/0
[Ac trans]
-27.2 -30.2 76 -40 -40 опасность
обморожения
1015.1 1010.6 -27.2 -22.4 0.0 32
15 23.03 С 9 4800 м ясно -28.6 -32.0 72 -45 -44 опасность
обморожения
1015.2 1010.7
18 23.03 С 10 4800 м метель ясно -26.4 -29.9 72 -42 -42 опасность
обморожения
1016.5 1012.0 -29.0 -22.3
21 23.03 С 14 800 м ясно -26.4 -29.7 74 -44 -44 опасность
обморожения
1017.2 1012.7
00 24.03 С 11 800 м метель ясно -28.0 -31.3 73 -45 -45 опасность
обморожения
1018.9 1014.4 -29.0 -25.9
03 24.03 С 14 1200 м ясно -29.1 -32.4 73 -48 -48 опасность
обморожения
1020.7 1016.2
06 24.03 С 9 3200 м метель ясно -30.1 -33.5 72 -46 -46 опасность
обморожения
1021.7 1017.3 -30.1 -22.3 2
09 24.03 СЗ 9 6000 м ясно -30.6 -34.1 71 -47 -47 опасность
обморожения
1022.9 1018.4
12 24.03 СЗ 9 9000 м ледяные иглы ясно -30.8 -34.3 71 -47 -47 опасность
обморожения
1023.4 1018.9 -30.9 -22.3 0.0 32
15 24.03 СЗ 9 24 км ясно -28.8 -32.5 70 -44 -44 опасность
обморожения
1023.6 1019.1
18 24.03 С 8 12 км ледяные иглы {снег} ясно -25.2 -29.0 70 -39 -38 опасность
обморожения
1023.8 1019.3 -30.9 -25.2 0.0 32
21 24.03 СЗ 8 16 км ясно -23.0 -26.7 72 -36 -35 опасность
обморожения
1024.5 1020.1
00 25.03 СЗ 7 24 км ледяные иглы {снег} ясно -24.6 -27.8 75 -37 -37 опасность
обморожения
1025.1 1020.6 -30.9 -22.8 0.0 32
03 25.03 СЗ 5 24 км ясно -26.8 -29.7 76 -39 -39 опасность
обморожения
1025.4 1020.9
06 25.03 СЗ 7 24 км ледяные иглы {снег} ясно -28.9 -31.9 75 -43 -43 опасность
обморожения
1025.4 1020.9 -30.9 -22.8 0.0 111
09 25.03 СЗ 4 24 км ясно -29.7 -32.7 75 -41 -41 опасность
обморожения
1026.1 1021.7
12 25.03 З 4 24 км ледяные иглы {снег} ясно -29.7 -32.7 75 -41 -41 опасность
обморожения
1027.0 1022.5 -30.5 -22.8 0.0 32
15 25.03 ЮВ 1 24 км ясно -26.7 -29.9 74 -31 -27 опасность
обморожения
1026.0 1021.5
18 25.03 Ю 2 24 км ледяные иглы {снег} 3/0
[Ci fib]
-23.0 -26.4 74 -29 -24 1025.9 1021.5 -30.5 -22.9 0.0 32
21 25.03 ЮВ 3 24 км 3/0 2000 м
[]
-19.5 -23.5 70 -27 -25 1024.8 1020.3
00 26.03 ЮВ 4 24 км {снег} 3/3 1000 м
[Sc]
-17.0 -19.8 79 -25 -25 1023.7 1019.2 -30.5 -16.8 0.0 32
03 26.03 Ю 5 24 км 5/5 600 м
[]
-17.4 -19.4 84 -27 -27 1022.5 1018.0
06 26.03 Ю 5 24 км 8/8 600 м
[Sc]
-16.6 -18.6 84 -26 -26 1022.3 1017.9 -30.5 -15.4 32
09 26.03 Ю 4 24 км 3/3 600 м
[]
-17.1 -19.1 84 -25 -25 1021.8 1017.4
12 26.03 Ю 1 24 км 8/8 1500 м
[Sc]
-15.0 -17.7 80 -18 -18 1021.9 1017.5 -15.4
15 26.03 СВ 1 24 км 9/9 1500 м
[]
-15.3 -18.0 80 -18 -18 1022.1 1017.7
18 26.03 С 1 24 км 9/9 1500 м
[Sc]
-11.5 -14.6 78 -14 -13 1022.4 1018.0
21 26.03 С 3 24 км 3/0
[]
-11.0 -13.8 80 -16 -14 1022.9 1018.5
00 27.03 С 6 24 км 3/1 1000 м
[Sc Ci fib]
-15.2 -17.0 86 -25 -25 1023.7 1019.3 -10.8
03 27.03 С 7 24 км 1/1 1000 м
[]
-20.4 -23.0 80 -32 -32 опасность
обморожения
1024.4 1020.0
06 27.03 С 6 24 км ясно -22.6 -25.0 81 -34 -34 опасность
обморожения
1024.6 1020.2 32
09 27.03 С 4 24 км ясно -23.6 -26.0 81 -34 -34 опасность
обморожения
1025.6 1021.2
12 27.03 С 4 24 км 1/1 1500 м
[Sc As trans Ci fib]
-24.5 -27.0 80 -34 -34 опасность
обморожения
1027.3 1022.8 -24.6
15 27.03 С 2 24 км 1/1 300 м
[]
-21.1 -24.0 77 -27 -25 1027.8 1023.3

 

Местоположение метеостанции Rankin Inlet (Канада): широта 62.82 долгота -92.11 высота над уровнем моря 31 м.

В архиве по умолчанию представлена погода в Rankin Inlet за последнюю неделю. Архивные данные за месяц целиком и за предыдущие месяцы, начиная с января 2011 года, Вы можете получить, выбрав интересующий диапазон дат из раскрывающегося списка и нажав кнопку "Ввод!".

Внимание! Время в таблицах - всемирное. Для получения местного времени необходимо прибавить поправку, которая в Rankin Inlet равна -6 ч.

Смотрите также архив погоды в соседних городах и на ближайших метеорологических станциях:

Погода в Arviat Climate (Канада) (217 км)
Погода в Arviat (Канада) (217 км)
Погода в Arviat Airport (Канада) (218 км)
Погода в Baker Lake Climate (Канада) (255 км)
Погода в Baker Lake Airport (Канада) (256 км)
Погода в Wager Bay (Канада) (364 км)
Погода в Back River MAPS (Канада) (419 км)
Погода в Coral Harbour Arpt (Канада) (460 км)
Погода в Churchill Climate (Канада) (468 км)
Погода в Dubawnt Lake (Канада) (486 км)

Пояснения к столбцам:

Ветер - указаны скорость ветра в м/с - средняя за 10 мин, порывы в срок и между сроками (в фигурных скобках) и направление, откуда дует ветер: С - северный, СВ - северо-восточный, В - восточный, ЮВ - юго-восточный, Ю - южный, ЮЗ - юго-западный, З - западный, СЗ - северо-западный.
Видимость - горизонтальная дальность видимости в метрах или километрах. При видимости от 1 до 10 км при отсутствии осадков обычно наблюдается дымка, при ухудшении видимости до 1 км и менее - туман. В сухую погоду видимость может ухудшаться дымом, пылью или мглою.
Явления - указаны атмосферные явления, наблюдавшиеся в срок или в последний час перед сроком; фигурными скобками обозначены явления, наблюдавшиеся между сроками (за 1-3 часа до срока); квадратными скобками обозначены град или гололедные отложения с указанием их диаметра в мм.
Облачность - указаны через наклонную черту общая и нижняя облачность в баллах и высота нижней границы облаков в метрах; квадратными скобками обозначены формы облаков: Ci - перистые, Cs - перисто-слоистые, Cc - перисто-кучевые, Ac - высококучевые, As - высокослоистые, Sc - слоисто-кучевые, Ns - слоисто-дождевые, Cu - кучевые, Cb - кучево-дождевые. Подробнее классификацию облаков см. в Атласе облаков (PDF).
T - Температура воздуха - температура, измеренная на высоте 2 м над землей.
Td - Температура точки росы - температура, при понижении до которой содержащийся в воздухе водяной пар достигнет насыщения.
f - Относительная влажность воздуха - влажноcть воздуха, измеренная на высоте 2 м над землей.
Te - Эффективная температура - температура, которую ощущает одетый по сезону человек в тени. Характеристика душности погоды. При расчете учитывается влияние влажности воздуха и скорости ветра на теплоощущения человека.
Tes - Эффективная температура на солнце - температура, которую ощущает человек, с поправкой на солнечный нагрев. Характеристика знойности погоды. Зависит от высоты солнца над горизонтом, облачности и скорости ветра. Ночью, в пасмурную погоду, а также при ветре 12 м/с и более поправка равна нулю.
P - Атмосферное давление - приведенное к уровню моря атмосферное давление.
Po - Атмосферное давление - измеренное на уровне метеостанции атмосферное давление.
Tmin - Минимальная температура - минимум температуры воздуха на высоте 2 м над землей.
Tmax - Максимальная температура - максимум температуры воздуха на высоте 2 м над землей.
R - Количество осадков - Количество выпавших осадков, мм. При наведении курсора мыши на число - период времени, за который выпало указанное количество осадков.
S - Снежный покров - Высота снежного покрова, см. При наведении курсора мыши на число - состояние снежного покрова и степень покрытия местности в баллах.